Hourly Data Report for November 09, 2017

All times are specified in Local Standard Time (LST). Add 1 hour to adjust for Daylight Saving Time where and when it is observed.

GIMLI CLIMATE
MANITOBA

50°38'00.000" N
97°03'00.000" W
230.10 m
5031042
71748
PGH

Download Data

Hourly Data (November 2017)
Hourly Data Report for November 9, 2017
Temp Definition
°C
Dew Point Temp Definition
°C
Rel Hum Definition
%
Wind Dir Definition
10's deg

Wind Spd Definition
km/h
Visibility Definition
km
Stn Press Definition
kPa
Hmdx Definition


Wind Chill Definition


Weather Definition


TIME
00:00 -15.6 -18.1 81 27 6   99.63   -20 LegendNANA
01:00 -17.0 -19.7 79 31 11   99.66   -24 LegendNANA
02:00 -18.1 -20.4 82 30 12   99.71   -26 LegendNANA
03:00 -17.5 -19.5 84 28 13   99.70   -25 LegendNANA
04:00 -17.5 -20.5 78 30 13   99.78   -25 LegendNANA
05:00 -18.7 -21.9 76 29 12   99.88   -26 LegendNANA
06:00 -19.8 -22.6 78 29 11   99.95   -27 LegendNANA
07:00 -19.7 -22.5 78 29 13   100.02   -28 LegendNANA
08:00 -19.9 -22.8 78 29 10   100.11   -27 LegendNANA
09:00 -18.0 -22.2 70 29 7   100.17   -23 LegendNANA
10:00 -14.6 -20.6 60 32 6   100.23   -19 LegendNANA
11:00 -12.5 -19.6 55 31 10   100.29   -18 LegendNANA
12:00 -11.6 -19.5 52 28 16   100.33   -19 LegendNANA
13:00 -10.7 -19.4 49 28 15   100.32   -18 LegendNANA
14:00 -10.0 -20.0 44 26 14   100.34   -16 LegendNANA
15:00 -10.0 -21.2 40 27 12   100.40   -16 LegendNANA
16:00 -10.3 -20.2 44 27 6   100.42   -14 LegendNANA
17:00 -14.1 -19.2 65 15 4   100.46   -17 LegendNANA
18:00 -16.0 -20.2 70 18 6   100.45   -20 LegendNANA
19:00 -18.8 -21.1 82 18 5   100.45   -23 LegendNANA
20:00 -18.6 -21.0 81 19 9   100.45   -25 LegendNANA
21:00 -20.3 -22.5 82 22 8   100.50   -27 LegendNANA
22:00 -19.3 -21.6 82 22 8   100.52   -25 LegendNANA
23:00 -19.6 -22.0 81 18 10   100.52   -27 LegendNANA

Notes on Data Quality.

Legend

  • E = Estimated
  • M = Missing
  • NA = Not Available
  • ‡ = Partner data that is not subject to review by the National Climate Archives
Date modified: